Location: Les Jeannots
(43.2262°N, 5.5774°E)
Time: 17:02:41
(UTC+00:00)

ERS-1 Rocket - Pass Details

Date: 05 July 2020
Orbit: 752 x 758 km, 98.5° (Epoch: 12 August)

Event Time Altitude Azimuth Distance (km) Brightness Sun altitude
Exits shadow 20:56:52 20° 150° (SSE) 1,680 4.1 -13.9°
Maximum altitude 21:00:16 65° 73° (ENE) 835 3.1 -14.3°
Drops below altitude 10° 21:05:16 10° 352° (N) 2,297 6.4 -14.8°
Sets 21:07:35 0° 350° (N) 3,226 7.4 -15.1°
